Location: Berkeley
(37.8716°N, 122.2727°W)
Time: 22:36:43
(UTC-07:00)

Altair - All Passes

Search period start: 07 June 2026 00:00
Search period end: 17 June 2026 00:00
Orbit: 1501 x 1682 km, 47.2° (Epoch: 6 June)

Date Brightness Start Highest point End Pass type
(mag) Time Alt. Az. Time Alt. Az. Time Alt. Az.
7 Jun - 00:11:19 10° WSW 00:20:42 79° NNW 00:30:30 10° ENE visible
7 Jun - 02:17:20 10° W 02:26:33 50° N 02:36:08 10° ENE visible
7 Jun - 04:23:11 10° WNW 04:32:51 61° NNE 04:42:50 10° E visible
7 Jun - 06:28:10 10° WNW 06:37:57 65° SW 06:47:56 10° SE daylight
7 Jun - 08:35:23 10° W 08:41:26 18° WSW 08:47:33 10° SSW daylight
7 Jun - 21:43:24 10° SSW 21:51:25 34° SE 21:59:38 10° ENE visible
7 Jun - 23:46:05 10° WSW 23:55:26 84° NNW 00:05:12 10° ENE visible
8 Jun - 01:51:59 10° W 02:01:11 50° N 02:10:45 10° ENE visible
8 Jun - 03:57:54 10° WNW 04:07:30 59° NNE 04:17:25 10° E visible
8 Jun - 06:02:53 10° WNW 06:12:42 69° SW 06:22:45 10° SE daylight
8 Jun - 08:09:40 10° W 08:16:18 20° SW 08:23:03 10° SSW daylight
8 Jun - 21:18:34 10° S 21:26:18 31° SE 21:34:12 10° ENE visible
8 Jun - 23:20:51 10° WSW 23:30:11 88° NNW 23:39:54 10° ENE visible
9 Jun - 01:26:37 10° W 01:35:48 51° N 01:45:21 10° ENE visible
9 Jun - 03:32:37 10° WNW 03:42:09 57° NNE 03:51:59 10° E visible
9 Jun - 05:37:37 10° WNW 05:47:28 74° SW 05:57:32 10° SE daylight
9 Jun - 07:44:01 10° W 07:51:10 23° SW 07:58:25 10° S daylight
9 Jun - 20:53:46 10° S 21:01:11 28° SE 21:08:44 10° ENE visible
9 Jun - 22:55:39 10° SW 23:04:56 87° SE 23:14:36 10° ENE visible
10 Jun - 01:01:17 10° W 01:10:27 52° N 01:19:58 10° ENE visible
10 Jun - 03:07:20 10° WNW 03:16:47 55° NNE 03:26:33 10° E visible
10 Jun - 05:12:21 10° WNW 05:22:12 79° SW 05:32:19 10° SE visible
10 Jun - 07:18:27 10° WNW 07:26:01 25° SW 07:33:43 10° S daylight
10 Jun - 20:29:02 10° S 20:36:04 25° SE 20:43:13 10° ENE daylight
10 Jun - 22:30:27 10° SW 22:39:42 82° SE 22:49:19 10° ENE visible
11 Jun - 00:35:56 10° W 00:45:05 53° NNW 00:54:37 10° ENE visible
11 Jun - 02:42:02 10° WNW 02:51:25 53° NNE 03:01:08 10° E visible
11 Jun - 04:47:06 10° WNW 04:56:56 84° SW 05:07:04 10° SE visible
11 Jun - 06:52:57 10° WNW 07:00:52 28° SW 07:08:56 10° S daylight
11 Jun - 20:04:22 10° S 20:10:58 22° SE 20:17:39 10° E daylight
11 Jun - 22:05:17 10° SW 22:14:29 77° SE 22:24:01 10° ENE visible
12 Jun - 00:10:36 10° W 00:19:45 55° NNW 00:29:16 10° ENE visible
12 Jun - 02:16:44 10° WNW 02:26:03 52° N 02:35:42 10° E visible
12 Jun - 04:21:51 10° WNW 04:31:40 88° SSW 04:41:47 10° SE visible
12 Jun - 06:27:29 10° WNW 06:35:42 31° SW 06:44:06 10° S daylight
12 Jun - 19:39:47 10° SSE 19:45:52 20° SE 19:52:02 10° E daylight
12 Jun - 21:40:08 10° SW 21:49:16 72° SE 21:58:44 10° ENE visible
12 Jun - 23:45:15 10° W 23:54:24 56° NNW 00:03:55 10° ENE visible
13 Jun - 01:51:27 10° WNW 02:00:40 51° N 02:10:16 10° E visible
13 Jun - 03:56:36 10° WNW 04:06:23 87° NE 04:16:29 10° ESE visible
13 Jun - 06:02:03 10° WNW 06:10:32 34° SW 06:19:13 10° S daylight
13 Jun - 19:15:18 10° SSE 19:20:47 18° SE 19:26:19 10° E daylight
13 Jun - 21:15:01 10° SW 21:24:05 67° SE 21:33:26 10° ENE visible
13 Jun - 23:19:56 10° W 23:29:04 58° NNW 23:38:35 10° ENE visible
14 Jun - 01:26:09 10° WNW 01:35:19 50° N 01:44:50 10° E visible
14 Jun - 03:31:21 10° WNW 03:41:06 83° NNE 03:51:11 10° ESE visible
14 Jun - 05:36:40 10° WNW 05:45:22 37° SW 05:54:16 10° SSE daylight
14 Jun - 18:50:57 10° SSE 18:55:42 15° ESE 19:00:28 10° E daylight
14 Jun - 20:49:55 10° SW 20:58:53 62° SE 21:08:08 10° ENE visible
14 Jun - 22:54:36 10° W 23:03:45 60° NNW 23:13:16 10° ENE visible
15 Jun - 01:00:50 10° WNW 01:09:57 49° N 01:19:24 10° E visible
15 Jun - 03:06:07 10° WNW 03:15:49 79° NNE 03:25:51 10° ESE visible
15 Jun - 05:11:18 10° WNW 05:20:11 40° SW 05:29:18 10° SSE visible
15 Jun - 18:26:51 10° SSE 18:30:37 13° ESE 18:34:24 10° E daylight
15 Jun - 20:24:50 10° SSW 20:33:43 57° SE 20:42:50 10° ENE daylight
15 Jun - 22:29:17 10° WSW 22:38:26 63° NNW 22:47:57 10° ENE visible
16 Jun - 00:35:31 10° WNW 00:44:34 49° N 00:53:58 10° ENE visible
16 Jun - 02:40:52 10° WNW 02:50:31 75° NNE 03:00:30 10° ESE visible
16 Jun - 04:45:57 10° WNW 04:54:59 44° SW 05:04:17 10° SSE visible
16 Jun - 18:03:15 10° SE 18:05:33 11° ESE 18:07:51 10° ESE daylight
16 Jun - 19:59:47 10° SSW 20:08:33 52° SE 20:17:31 10° ENE daylight
16 Jun - 22:03:58 10° WSW 22:13:09 66° NNW 22:22:39 10° ENE visible
